sat.trackr.live / text

‹ back to catalog

ONEWEB-0067

NORAD 45425 · 2020-020B

PAYLOAD ACTIVE UNKNOWN

§ Identity

Operator
Country
UK
Launch date
2020-03-21
Launch site
TYMSC
Launch vehicle
Mass (kg)
RCS (m²)

Purposes: comms

External: N2YO · Heavens-Above · Gunter

§ Orbital elements

Epoch: 2026-09-20T00:29:52.592640Z

Period
109.80 min
Inclination
87.8994°
Eccentricity
0.0002959
Mean motion
13.11470254 rev/d
Perigee alt
1,215.2 km
Apogee alt
1,219.7 km
Semi-major
7,595.6 km
B*
1.3307e-2
RAAN
2.1590°
Arg perigee
111.2969°
Mean anomaly
248.8476°
Rev number
31,516

§ Raw data

ONEWEB-00671 45425U 20020B   26263.02074760  .00004735  00000+0  13307-1 0  99922 45425  87.8994   2.1590 0002959 111.2969 248.8476 13.11470254315161

JSON: /api/v1/satellites/45425 · /tle

For live sub-satellite position, see the globe view (requires WebGL).

§ Visibility from observer

Set your observer location to see the next 7 days of passes ≥ 10°. The values pass through the URL so the page stays shareable.

No JS? Fill the form by hand. The geolocation button needs JavaScript.